This is the latest recevied weather packets stored in our database for station/object OK0EK-12. If no packets are shown the sender has not sent any weather packets the latest 10 day(s).
| Time | Temp. | Humidity | Pressure | Rain* | Wind** | Luminosity | Snow |
|---|---|---|---|---|---|---|---|
| 1777630394 | 26.11° C | 23% | 1106.3 hPa | - | - | - | - |
| 1777629795 | 25° C | 22% | 1106.4 hPa | - | - | - | - |
| 1777629197 | 25.56° C | 23% | 1106.4 hPa | - | - | - | - |
| 1777628598 | 25.56° C | 25% | 1106.6 hPa | - | - | - | - |
| 1777627998 | 25° C | 25% | 1106.8 hPa | - | - | - | - |
| 1777627399 | 21.67° C | 27% | 1106.9 hPa | - | - | - | - |
| 1777626801 | 19.44° C | 30% | 1106.9 hPa | - | - | - | - |
| 1777626203 | 18.33° C | 30% | 1107 hPa | - | - | - | - |
| 1777625604 | 18.33° C | 31% | 1107 hPa | - | - | - | - |
| 1777625005 | 17.22° C | 32% | 1107.2 hPa | - | - | - | - |
| 1777624406 | 16.67° C | 32% | 1107.2 hPa | - | - | - | - |
| 1777623808 | 16.11° C | 34% | 1107.2 hPa | - | - | - | - |
| 1777623209 | 17.22° C | 33% | 1107.1 hPa | - | - | - | - |
| 1777622610 | 17.78° C | 34% | 1107 hPa | - | - | - | - |
| 1777622011 | 18.33° C | 35% | 1107 hPa | - | - | - | - |
| 1777621412 | 18.89° C | 36% | 1107.1 hPa | - | - | - | - |
| 1777620813 | 16.67° C | 41% | 1107.2 hPa | - | - | - | - |
| 1777620215 | 15.56° C | 43% | 1107 hPa | - | - | - | - |
| 1777619615 | 15° C | 43% | 1107.1 hPa | - | - | - | - |
| 1777619017 | 14.44° C | 46% | 1107.1 hPa | - | - | - | - |
| 1777618418 | 13.33° C | 48% | 1107 hPa | - | - | - | - |
| 1777617819 | 13.33° C | 48% | 1107.1 hPa | - | - | - | - |
| 1777617220 | 12.78° C | 48% | 1107 hPa | - | - | - | - |
| 1777616622 | 12.78° C | 51% | 1107.1 hPa | - | - | - | - |
| 1777616023 | 12.22° C | 52% | 1107 hPa | - | - | - | - |
* Rain since midnight (hover to see other rain measurements)
** Current wind speed in m/s (hover to see current wind gust speed)